This is the latest recevied weather packets stored in our database for station/object IU2EVW-13. If no packets are shown the sender has not sent any weather packets the latest 10 day(s).
| Time | Temp. | Humidity | Pressure | Rain* | Wind** | Luminosity | Snow |
|---|---|---|---|---|---|---|---|
| 1777996812 | 11.11° C | 77% | 1014.7 hPa | - | - | - | - |
| 1777995610 | 10.56° C | 79% | 1014.8 hPa | - | - | - | - |
| 1777994409 | 11.11° C | 78% | 1014.8 hPa | - | - | - | - |
| 1777993208 | 11.11° C | 75% | 1014.9 hPa | - | - | - | - |
| 1777992006 | 12.22° C | 76% | 1015 hPa | - | - | - | - |
| 1777990805 | 11.67° C | 76% | 1014.9 hPa | - | - | - | - |
| 1777989603 | 11.11° C | 79% | 1015 hPa | - | - | - | - |
| 1777988401 | 11.11° C | 79% | 1015.2 hPa | - | - | - | - |
| 1777987200 | 11.11° C | 80% | 1015.2 hPa | - | - | - | - |
| 1777985998 | 10.56° C | 77% | 1015.2 hPa | - | - | - | - |
| 1777984797 | 10.56° C | 81% | 1015.3 hPa | - | - | - | - |
| 1777983596 | 11.11° C | 78% | 1015.3 hPa | - | - | - | - |
| 1777982394 | 11.67° C | 78% | 1015.3 hPa | - | - | - | - |
| 1777981193 | 12.22° C | 71% | 1015.3 hPa | - | - | - | - |
| 1777979992 | 11.67° C | 73% | 1015.4 hPa | - | - | - | - |
| 1777978790 | 11.67° C | 73% | 1015.5 hPa | - | - | - | - |
| 1777977589 | 11.11° C | 78% | 1015.6 hPa | - | - | - | - |
| 1777976387 | 11.67° C | 78% | 1015.6 hPa | - | - | - | - |
| 1777975185 | 11.11° C | 77% | 1015.8 hPa | - | - | - | - |
| 1777973983 | 10.56° C | 76% | 1015.6 hPa | - | - | - | - |
| 1777972782 | 10.56° C | 78% | 1015.6 hPa | - | - | - | - |
| 1777971581 | 10° C | 80% | 1015.6 hPa | - | - | - | - |
| 1777970379 | 10° C | 80% | 1015.6 hPa | - | - | - | - |
| 1777969178 | 9.44° C | 77% | 1015.5 hPa | - | - | - | - |
| 1777967977 | 10° C | 74% | 1015.4 hPa | - | - | - | - |
* Rain since midnight (hover to see other rain measurements)
** Current wind speed in m/s (hover to see current wind gust speed)